Location: Santa Giusta
(39.8800°N, 8.6069°E)
Time: 16:32:31
(UTC+00:00)

Cosmos 1633 - Pass Details

Date: 02 February 2023
Orbit: 422 x 431 km, 82.5° (Epoch: 01 April)

Event Time Altitude Azimuth Distance (km) Brightness Sun altitude
Rises 18:11:00 0° 189° (S) 2,368 6.3 -16.6°
Reaches altitude 10° 18:13:02 10° 191° (S) 1,506 5.3 -17.0°
Maximum altitude 18:16:18 77° 277° (W) 438 2.3 -17.6°
Enters shadow 18:19:29 11° 4° (N) 1,473 4.9 -18.2°
